This demonstration page uses our WeatherBlox Daily Observations layout. Learn more.

Left ArrowRight Arrow

41.55636, -103.73856

Hourly Observations for June 29, 2019

Temp ( °F °C ) Dew Point ( °F °C ) Humidity (%) Winds ( mph kmh ) Pressure ( in mb ) Visibility ( mi km ) Precip ( " mm )
12:58 am 00:58 Clear 83 28.6 47 8.3 28 28 ESE 12 19 29.96 1014 10 16 N/A
1:58 am 01:58 Clear 76 24.6 54 12 45 45 SE 7 11 29.96 1015 10 16 N/A
2:58 am 02:58 Clear 71 21.5 50 10.2 49 49 SSE 9 15 29.97 1015 10 16 N/A
3:58 am 03:58 Clear 69 20.6 47 8.5 46 46 SSE 12 19 29.98 1015 10 16 N/A
4:58 am 04:58 Clear 69 20.7 52 11 54 54 S 13 20 29.97 1015 10 16 N/A
5:58 am 05:58 Clear 66 18.8 53 11.4 62 62 SSW 23 37 29.99 1016 10 16 N/A
6:58 am 06:58 Clear 64 17.9 53 11.5 66 66 S 10 17 29.98 1015 10 16 N/A
7:58 am 07:58 Clear 63 17.4 52 11.3 68 68 SSW 12 19 29.98 1015 10 16 N/A
8:58 am 08:58 Mostly Clear 64 17.7 48 9 57 57 SW 15 24 29.97 1015 10 16 N/A
9:58 am 09:58 Mostly Cloudy 68 19.8 46 7.8 46 46 WSW 15 24 29.96 1015 10 16 N/A
10:58 am 10:58 Mostly Cloudy 68 20.1 45 7 43 43 WSW 15 24 29.95 1014 10 16 N/A
11:58 am 11:58 Sunny 67 19.2 46 7.5 47 47 W 9 15 29.95 1014 10 16 N/A
12:58 pm 12:58 Sunny 73 22.5 51 10.4 46 46 W 8 13 29.95 1014 10 16 N/A
1:58 pm 13:58 Sunny 74 23.4 53 11.7 48 48 W 6 9 29.98 1015 10 16 N/A
2:58 pm 14:58 Sunny 80 26.7 49 9.5 34 34 N N/A 30.00 1016 10 16 N/A
3:58 pm 15:58 Sunny 83 28.2 47 8.4 29 29 W 10 17 30.00 1016 10 16 N/A
4:58 pm 16:58 Sunny 86 29.8 49 9.7 29 29 WSW 6 9 30.00 1016 10 16 N/A
5:58 pm 17:58 Sunny 88 31.1 45 7.4 23 23 N N/A 29.99 1016 8 13 N/A
6:58 pm 18:58 Sunny 89 31.6 46 7.6 22 22 E 3 6 29.98 1015 10 16 N/A
7:58 pm 19:58 Sunny 91 32.6 42 5.6 18 18 NNE 9 15 29.97 1015 10 16 N/A
8:58 pm 20:58 Mostly Sunny 89 31.5 40 4.6 18 18 N 3 6 29.97 1015 10 16 N/A
9:58 pm 21:58 Mostly Cloudy with Nearby Thunderstorms 80 26.7 47 8.1 31 31 SSW 13 20 29.98 1015 10 16 N/A
10:58 pm 22:58 Sunny 81 27 52 11.1 37 37 SSE 7 11 29.98 1015 10 16 N/A

Powered by AerisWeather